Location: Lecco
(45.8566°N, 9.3977°E)
Time: 08:38:04
(UTC+02:00)

Altair - Pass Details

Date: 17 August 2020
Orbit: 1501 x 1682 km, 47.2° (Epoch: 25 September)

Event Time Altitude Azimuth Distance (km) Brightness Sun altitude
Rises 04:09:03 0° 259° (W) 4,819 - -20.4°
Reaches altitude 10° 04:12:12 10° 260° (W) 3,810 - -20.1°
Exits shadow 04:14:13 18° 261° (W) 3,176 8.7 -19.8°
Maximum altitude 04:21:53 86° 350° (N) 1,561 7.5 -18.9°
Drops below altitude 10° 04:31:14 10° 81° (E) 3,682 10.3 -17.7°
Sets 04:34:14 0° 82° (E) 4,651 11.0 -17.3°
